OSCAR 7 1 07530U 74089B 25309.49022837 -.00000033 00000-0 86285-4 0 9997 2 07530 101.9979 315.3635 0012100 197.2358 317.8163 12.53693110332488 OSCAR 11 (UOSAT 2) 1 14781U 84021B 25309.85904320 .00002240 00000-0 23819-3 0 9990 2 14781 97.7754 273.4767 0007103 190.9114 169.1951 14.89948613223860 OSCAR 19 (LUSAT) 1 20442U 90005G 25309.98526870 .00000195 00000-0 86340-4 0 9990 2 20442 98.8984 320.5061 0012314 137.0605 223.1542 14.34021001870404 EYESAT A 1 22825U 93061C 25309.65737223 .00000165 00000-0 79924-4 0 9999 2 22825 98.7197 11.8278 0009047 42.2286 317.9592 14.30855322675033 ITAMSAT 1 22826U 93061D 25309.63293110 .00000181 00000-0 85398-4 0 9990 2 22826 98.7144 11.6990 0009300 26.9485 333.2179 14.31274160675338 RADIO ROSTO 1 23439U 94085A 25309.97418469 -.00000040 00000-0 55471-4 0 9995 2 23439 64.8172 304.2093 0148423 45.4967 315.7977 11.27581941270736 JAS 2 1 24278U 96046B 25309.87944074 -.00000002 00000-0 36133-4 0 9993 2 24278 98.5495 183.9552 0349272 315.8129 41.5593 13.53259005442969 TECHSAT 1B 1 25397U 98043D 25309.89790897 .00000117 00000-0 70734-4 0 9990 2 25397 98.9886 292.2652 0002091 116.9024 243.2367 14.24360851419543 ISS (ZARYA) 1 25544U 98067A 25309.90547127 .00011147 00000-0 20455-3 0 9997 2 25544 51.6335 324.8242 0005105 21.4827 338.6376 15.49778705537144 PCSAT 1 26931U 01043C 25309.85483008 .00000255 00000-0 12616-3 0 9995 2 26931 67.0493 101.8612 0007193 272.0195 88.0083 14.31820971258476 SAUDISAT 1C 1 27607U 02058C 25309.83351354 .00001845 00000-0 23988-3 0 9999 2 27607 64.5517 99.6443 0069931 303.4276 56.0154 14.82172765231347 CUTE-1 1 27844U 03031E 25309.98622433 .00000451 00000-0 21491-3 0 9998 2 27844 98.6778 316.3617 0010644 111.5510 248.6805 14.24130870159905 CUBESAT XI 4 1 27848U 03031J 25308.95088184 .00000349 00000-0 17262-3 0 9994 2 27848 98.6805 315.2311 0010322 130.3769 229.8312 14.23445178159472 MOZHAYETS 4 1 27939U 03042A 25309.97463488 .00001544 00000-0 24964-3 0 9999 2 27939 98.3371 123.2014 0010277 255.4542 255.8663 14.72803544182688 CUBESAT XI 5 1 28895U 05043F 25309.86551750 .00002638 00000-0 43128-3 0 9990 2 28895 98.2704 96.3311 0014225 189.7658 170.3274 14.71663386 68895 CUTE-1.7+APD 2 1 32785U 08021C 25309.91318586 .00007532 00000-0 51542-3 0 9993 2 32785 97.8045 282.5068 0011798 70.8920 289.3583 15.06345053951547 SEEDS 1 32791U 08021J 25309.48700335 .00018405 00000-0 77452-3 0 9998 2 32791 97.7416 293.4071 0005291 45.0360 315.1304 15.23426155953120 YUBELEINY 1 32953U 08025A 25309.93187354 .00000021 00000-0 81042-4 0 9998 2 32953 82.4996 134.3186 0019948 79.4267 280.9058 12.43170169791951 KKS-1 (KISEKI) 1 33499U 09002H 25309.88573013 .00002444 00000-0 31334-3 0 9994 2 33499 98.1147 223.9554 0006748 301.1942 58.8608 14.82212733903106 SWISSCUBE 1 35932U 09051B 25309.67325016 .00001642 00000-0 33878-3 0 9991 2 35932 98.4138 208.5930 0006471 177.8860 182.2369 14.61782939856492 BEESAT 1 35933U 09051C 25309.71017361 .00001382 00000-0 29096-3 0 9996 2 35933 98.4068 208.7128 0004685 188.6492 171.4628 14.61129683856547 ITUPSAT 1 1 35935U 09051E 25309.43976125 .00001293 00000-0 28025-3 0 9991 2 35935 98.4160 207.8516 0006689 204.9770 155.1106 14.59896774856088 XIWANG-1 (HOPE-1) 1 36122U 09072B 25309.95787601 -.00000040 00000-0 10559-4 0 9993 2 36122 100.3708 262.6919 0007855 27.7826 332.3705 13.16430785763633 TISAT 1 1 36799U 10035E 25309.51202099 .00021262 00000-0 94705-3 0 9991 2 36799 98.0567 233.2310 0002336 13.0389 347.0905 15.21474308833572 JUGNU 1 37839U 11058B 25309.90670016 .00000556 00000-0 15082-3 0 9998 2 37839 19.9600 224.8454 0018751 130.6298 297.1666 14.13673110727399 SRMSAT 1 37841U 11058D 25309.50093372 .00000484 00000-0 11916-3 0 9993 2 37841 19.9732 333.3287 0011535 263.0683 256.2900 14.11491604726176 HORYU 2 1 38340U 12025D 25309.77299182 .00004732 00000-0 50923-3 0 9990 2 38340 98.1945 69.2889 0008436 186.1168 173.9946 14.88974845715459 STRAND 1 1 39090U 13009E 25309.48685621 .00000456 00000-0 16836-3 0 9995 2 39090 98.3839 130.3326 0008749 172.6335 187.4982 14.36954560664936 CUBEBUG 1 1 39153U 13018D 25309.82594781 .00006715 00000-0 61626-3 0 9990 2 39153 98.1402 95.5297 0012657 162.0605 198.1064 14.95152044677661 ZACUBE 1 39417U 13066B 25309.80590553 .00006710 00000-0 55649-3 0 9990 2 39417 97.7980 266.3238 0041361 273.5477 86.1015 14.98477304647247 TRITON 1 1 39427U 13066M 25310.00503084 .00003882 00000-0 48335-3 0 9999 2 39427 97.8297 220.0053 0090965 240.7726 118.4367 14.80165593641056 GOMX 1 1 39430U 13066Q 25309.83407234 .00002213 00000-0 34298-3 0 9992 2 39430 97.6628 159.2676 0132352 74.5173 287.0604 14.68334188637120 HUMSAT D 1 39433U 13066T 25309.99559123 .00076399 00000-0 13573-2 0 9995 2 39433 97.5033 309.8703 0004229 325.2803 34.8171 15.49919520652081 CUBEBUG 2 1 39440U 13066AA 25309.84518662 .00006238 00000-0 60862-3 0 9999 2 39440 97.8650 253.5923 0061925 48.1447 312.5033 14.91342732643676 FUNCUBE 1 1 39444U 13066AE 25309.83403646 .00009943 00000-0 69280-3 0 9996 2 39444 97.8020 272.6949 0037375 241.0181 118.7297 15.05066883646017 UWE-3 1 39446U 13066AG 25309.80422366 .00007287 00000-0 66302-3 0 9996 2 39446 97.8413 260.1568 0051215 345.9238 14.0551 14.94494161644188 UNISAT 6 1 40012U 14033C 25309.86172519 .00004307 00000-0 48382-3 0 9998 2 40012 97.7601 102.1717 0047790 84.4747 276.1917 14.86422415612963 DUCHIFAT 1 1 40021U 14033M 25309.51451126 .00037731 00000-0 10414-2 0 9995 2 40021 98.0845 337.5471 0008190 144.0031 216.1764 15.36955828621125 QB50P1 1 40025U 14033R 25309.93795587 .00012187 00000-0 68516-3 0 9992 2 40025 98.0946 301.2295 0007543 270.9068 89.1297 15.13426606619200 OBJECT G 1 40905U 15049G 25309.91775987 .00027977 00000-0 48444-3 0 9998 2 40905 97.4890 337.8775 0005746 334.5533 25.5435 15.50874188561671 LILACSAT 2 1 40908U 15049K 25309.92366491 .00017132 00000-0 38786-3 0 9998 2 40908 97.4954 334.2064 0007954 357.3754 2.7450 15.43164044561228 LQSAT 1 40958U 15057A 25309.98849156 .00000909 00000-0 13770-3 0 9992 2 40958 97.6603 309.6348 0015641 278.1545 81.7891 14.76352125542372 CHUBUSAT 2 1 41338U 16012B 25309.46993919 .00007296 00000-0 34742-3 0 9995 2 41338 30.9995 346.3319 0009120 313.4488 46.5393 15.17682415534369 CHUBUSAT 3 1 41339U 16012C 25309.48596634 .00006443 00000-0 32244-3 0 9999 2 41339 31.0067 351.0238 0009455 308.4099 51.5692 15.15897997534198 PRATHAM 1 41783U 16059A 25309.45413948 .00001010 00000-0 18844-3 0 9991 2 41783 97.8273 311.3200 0030707 208.9297 151.0207 14.66726595486718 ALSAT 1N 1 41789U 16059G 25309.98169968 .00001281 00000-0 22681-3 0 9999 2 41789 97.8036 318.3686 0026127 178.4833 181.6457 14.68740571487230